[[{"header":{"parameterUnit":"m.s-1","parameterCategory":1,"la1":30.2991,"la2":30.254,"lo1":-89.0895,"lo2":-89.0444,"dy":0.0017,"dx":0.0017,"nx":28,"ny":28,"refTime":"2024-05-06T03:00:00:Z","depth":0,"parameterNumber":2,"parameterNumberName":"U-component_of_WINDS"},"data":[0,0,0,0,0,0,0,0,0,0,0,0,0,0,0,0,0,0,0,0,0,0,0,0,0,0,0,0,0,0,0,0,0,0,0,0,0,0,0,0,0,0,0,0,0,0,0,0,0,0,0,0,0,0,0,0,0,0,-0.7408,-0.7408,0,-0.7418,-0.7418,-0.7418,-0.7421,-0.7421,-0.7421,-0.7421,-0.7431,-0.7431,-0.7431,0,0,0,0,0,0,0,0,0,0,0,0,0,-0.7394,-0.7394,-0.7408,-0.7409,-0.7409,-0.7418,-0.7418,-0.7418,-0.7421,-0.7421,-0.7421,-0.7421,-0.7431,-0.7431,-0.7431,0,0,0,0,0,0,0,0,0,0,0,0,0,-0.7402,-0.7395,-0.7408,-0.7411,-0.7412,-0.7418,-0.7418,-0.7418,-0.7421,-0.7421,-0.7421,-0.7421,-0.7431,-0.7431,-0.7431,-0.7435,0,0,-0.7433,-0.7433,0,0,0,0,0,0,0,0,-0.7401,-0.7402,-0.7411,-0.7411,-0.7412,-0.7418,-0.7416,-0.7424,-0.7421,-0.7418,-0.7421,-0.7421,-0.7427,-0.7427,-0.7429,-0.7436,-0.7436,-0.7433,-0.7433,-0.7433,-0.7433,0,0,0,0,0,0,0,-0.7401,-0.7402,-0.7412,-0.7411,-0.7411,-0.7412,-0.7413,-0.7418,-0.7422,-0.7418,-0.7418,-0.7419,-0.7427,-0.7429,-0.743,-0.7436,-0.7433,-0.7433,-0.7433,-0.7434,-0.7447,-0.7447,0,0,0,0,0,0,-0.74,-0.7401,-0.7412,-0.7412,-0.7406,-0.7413,-0.7414,-0.7416,-0.7422,-0.7423,-0.7419,-0.7419,-0.7428,-0.7429,-0.743,-0.7435,-0.7433,-0.7434,-0.7434,-0.7447,-0.7447,-0.7447,0,0,0,0,0,0,-0.7399,-0.74,-0.7411,-0.7407,-0.7408,-0.7413,-0.7416,-0.7416,-0.7418,-0.7423,-0.7424,-0.742,-0.7428,-0.7429,-0.7434,-0.7435,-0.7434,-0.7434,-0.7447,-0.7447,-0.7447,-0.7445,0,0,0,0,0,0,-0.7399,-0.74,-0.7402,-0.7407,-0.7409,-0.7415,-0.7416,-0.7417,-0.7419,-0.7419,-0.7425,-0.7425,-0.7428,-0.7433,-0.7434,-0.7436,-0.7435,-0.7447,-0.7447,-0.7447,-0.7445,-0.7445,-0.7445,0,0,0,0,0,-0.7398,-0.7401,-0.7402,-0.7403,-0.741,-0.7415,-0.7416,-0.7419,-0.7419,-0.7421,-0.7424,-0.7425,-0.7435,-0.7434,-0.7435,-0.7437,-0.7446,-0.7447,-0.7447,-0.7445,-0.7445,-0.7445,0,0,0,0,0,0,-0.7395,-0.7401,-0.7402,-0.7406,-0.741,-0.7416,-0.7417,-0.7419,-0.7423,-0.7423,-0.7427,-0.7428,-0.7432,-0.7435,-0.7434,-0.7441,-0.7441,-0.7441,-0.7439,-0.7439,-0.7439,-0.7438,-0.7435,0,0,0,0,0,-0.7395,-0.7398,-0.7404,-0.7407,-0.7408,-0.7413,-0.7415,-0.7417,-0.7421,-0.7423,-0.7426,-0.743,-0.7435,-0.7437,-0.7441,-0.7446,-0.7447,-0.7447,-0.7447,-0.7448,-0.7448,-0.7451,-0.7451,-0.7448,-0.7448,-0.7448,0,0,-0.7394,-0.7398,-0.74,-0.7406,-0.7409,-0.7413,-0.7414,-0.7418,-0.742,-0.7423,-0.7428,-0.7431,-0.7436,-0.744,-0.7443,-0.7443,-0.7449,-0.7448,-0.7448,-0.7448,-0.7451,-0.7452,-0.7452,-0.7448,-0.7448,-0.7448,0,0,-0.7395,-0.7399,-0.7402,-0.7405,-0.741,-0.7413,-0.7413,-0.7419,-0.7421,-0.7426,-0.7428,-0.7432,-0.7438,-0.7442,-0.7445,-0.7448,-0.7449,-0.7449,-0.7449,-0.7452,-0.7453,-0.7453,-0.7454,-0.7455,-0.7449,-0.7449,-0.7449,0,-0.7394,-0.7399,-0.7403,-0.7407,-0.7409,-0.7412,-0.7416,-0.7419,-0.7425,-0.7427,-0.7427,-0.7436,-0.7439,-0.7445,-0.7446,-0.7448,-0.7449,-0.7448,-0.7452,-0.7453,-0.7453,-0.7454,-0.7455,-0.7449,-0.7449,-0.7449,-0.7449,0,-0.7398,-0.7402,-0.7404,-0.7409,-0.7412,-0.7416,-0.742,-0.7423,-0.7425,-0.7428,-0.7433,-0.7438,-0.7443,-0.7445,-0.7446,-0.7451,-0.7451,-0.7452,-0.7452,-0.7453,-0.7455,-0.7455,-0.7449,-0.7449,-0.7449,-0.7449,0,0,-0.7396,-0.7405,-0.7405,-0.7408,-0.7414,-0.7417,-0.7421,-0.7426,-0.7429,-0.7433,-0.7437,-0.7443,-0.7444,-0.7447,-0.7449,-0.7452,-0.7455,-0.7453,-0.7453,-0.7453,-0.746,-0.7459,-0.746,-0.7456,-0.7456,-0.7456,-0.746,0,-0.7398,-0.7405,-0.7409,-0.7414,-0.7418,-0.7421,-0.7425,-0.7429,-0.7432,-0.7436,-0.744,-0.7444,-0.7445,-0.7447,-0.745,-0.7454,-0.7456,-0.7454,-0.7459,-0.746,-0.7458,-0.7461,-0.746,-0.7463,-0.746,-0.746,-0.746,0,-0.7401,-0.7405,-0.7411,-0.7417,-0.7419,-0.7422,-0.7427,-0.7431,-0.7436,-0.7438,-0.7442,-0.7445,-0.745,-0.745,-0.7456,-0.7454,-0.7457,-0.746,-0.746,-0.746,-0.746,-0.7461,-0.7464,-0.7465,-0.7461,-0.7461,-0.7461,0,-0.74,-0.7407,-0.7412,-0.7414,-0.7421,-0.7423,-0.7426,-0.7432,-0.7435,-0.7439,-0.7442,-0.7447,-0.745,-0.7454,-0.7458,-0.7458,-0.7465,-0.7465,-0.7467,-0.7467,-0.7468,-0.7468,-0.7471,-0.747,-0.747,-0.747,-0.747,0,-0.7401,-0.7405,-0.7411,-0.7414,-0.7418,-0.7423,-0.7427,-0.743,-0.7435,-0.7439,-0.7442,-0.7446,-0.7451,-0.7455,-0.7459,-0.7464,-0.7465,-0.7467,-0.7468,-0.7467,-0.7467,-0.7469,-0.7469,-0.747,-0.747,-0.747,-0.747,0,-0.74,-0.7405,-0.741,-0.7416,-0.7418,-0.7421,-0.7427,-0.743,-0.7434,-0.7438,-0.744,-0.7446,-0.7451,-0.7456,-0.7463,-0.7465,-0.7471,-0.7472,-0.7469,-0.7469,-0.7471,-0.7471,-0.7476,-0.7477,-0.7475,-0.7475,-0.7475,0,-0.7401,-0.7404,-0.7411,-0.7413,-0.7416,-0.7421,-0.7424,-0.7429,-0.7432,-0.7439,-0.7441,-0.7447,-0.7451,-0.746,-0.7465,-0.7471,-0.7472,-0.7473,-0.7473,-0.7472,-0.7472,-0.7472,-0.7472,-0.7473,-0.7473,-0.7473,-0.7473,0,-0.7401,-0.7404,-0.7408,-0.7413,-0.7417,-0.7422,-0.7426,-0.7429,-0.7434,-0.7438,-0.7443,-0.7447,-0.7455,-0.746,-0.7467,-0.747,-0.7473,-0.7473,-0.7474,-0.7473,-0.7471,-0.7472,-0.7469,-0.7473,-0.7473,-0.7473,-0.7473,-0.7473,-0.7401,-0.7404,-0.741,-0.7415,-0.7419,-0.7423,-0.7426,-0.7431,-0.7435,-0.7442,-0.7444,-0.745,-0.7456,-0.7465,-0.7469,-0.7473,-0.7474,-0.7475,-0.7475,-0.7475,-0.7475,-0.7471,-0.7475,-0.7475,-0.7475,-0.7475,-0.7475,0,-0.7402,-0.7406,-0.7411,-0.7417,-0.7421,-0.7423,-0.7429,-0.7432,-0.7437,-0.7442,-0.7447,-0.7454,-0.746,-0.7465,-0.7472,-0.7474,-0.7476,-0.7476,-0.7476,-0.7477,-0.7474,-0.7473,-0.7475,-0.7475,-0.7475,-0.7475,-0.7475,-0.7475,-0.7403,-0.7408,-0.7411,-0.7419,-0.7423,-0.7428,-0.7431,-0.7435,-0.744,-0.7447,-0.7452,-0.7455,-0.7461,-0.7468,-0.7473,-0.7475,-0.7477,-0.7477,-0.7479,-0.7477,-0.7477,-0.7477,-0.7475,-0.7477,-0.7477,-0.7481,-0.7481,-0.7481]},{"header":{"parameterUnit":"m.s-1","parameterCategory":1,"la1":30.2991,"la2":30.254,"lo1":-89.0895,"lo2":-89.0444,"dy":0.0017,"dx":0.0017,"nx":28,"ny":28,"refTime":"2024-05-06T03:00:00:Z","depth":0,"parameterNumber":3,"parameterNumberName":"V-component_of_WINDS"},"data":[0,0,0,0,0,0,0,0,0,0,0,0,0,0,0,0,0,0,0,0,0,0,0,0,0,0,0,0,0,0,0,0,0,0,0,0,0,0,0,0,0,0,0,0,0,0,0,0,0,0,0,0,0,0,0,0,0,0,4.5807,4.5807,0,4.5768,4.5768,4.5768,4.5707,4.5705,4.5704,4.5703,4.5662,4.5662,4.5662,0,0,0,0,0,0,0,0,0,0,0,0,0,4.583,4.5829,4.5808,4.5807,4.5807,4.5768,4.5768,4.5767,4.5707,4.5705,4.5704,4.5703,4.5662,4.5662,4.5662,0,0,0,0,0,0,0,0,0,0,0,0,0,4.5808,4.5829,4.5808,4.5772,4.5768,4.5769,4.5768,4.5767,4.5707,4.5705,4.5704,4.5702,4.5662,4.5662,4.5662,4.5694,0,0,4.5662,4.5662,0,0,0,0,0,0,0,0,4.581,4.5807,4.5777,4.5774,4.577,4.5741,4.5761,4.5743,4.5707,4.573,4.5703,4.5701,4.569,4.5687,4.5683,4.5692,4.569,4.5662,4.5662,4.5661,4.5661,0,0,0,0,0,0,0,4.5811,4.5809,4.5792,4.5777,4.5773,4.5758,4.5753,4.5757,4.5719,4.5728,4.5724,4.572,4.5687,4.5684,4.5682,4.569,4.5662,4.5662,4.5661,4.5661,4.5724,4.5725,0,0,0,0,0,0,4.5818,4.581,4.5793,4.5791,4.5786,4.5759,4.5753,4.5752,4.5719,4.5713,4.5721,4.5717,4.5685,4.5682,4.568,4.5716,4.5661,4.5661,4.5661,4.5722,4.5724,4.5726,0,0,0,0,0,0,4.5819,4.5817,4.5795,4.5799,4.5795,4.576,4.5759,4.5752,4.5748,4.5714,4.5707,4.5724,4.5683,4.568,4.5691,4.5714,4.5661,4.5661,4.572,4.5723,4.5725,4.5788,0,0,0,0,0,0,4.582,4.5818,4.5829,4.58,4.5795,4.5807,4.576,4.5752,4.5748,4.5742,4.5715,4.5709,4.5682,4.5692,4.5691,4.5713,4.5661,4.5718,4.5721,4.5724,4.5784,4.5792,4.58,0,0,0,0,0,4.5821,4.5848,4.583,4.5828,4.5809,4.5808,4.5805,4.5774,4.575,4.5762,4.574,4.571,4.5712,4.5694,4.5692,4.5714,4.5716,4.572,4.5724,4.578,4.5791,4.58,0,0,0,0,0,0,4.588,4.5844,4.5823,4.5842,4.5829,4.5798,4.5811,4.5786,4.5778,4.5773,4.5734,4.5728,4.5744,4.573,4.5711,4.5744,4.5709,4.5713,4.5752,4.5762,4.577,4.5773,4.5661,0,0,0,0,0,4.5896,4.5898,4.5866,4.5886,4.588,4.5847,4.5845,4.5822,4.5807,4.58,4.5779,4.5765,4.5763,4.5762,4.5757,4.5782,4.5775,4.5796,4.5804,4.5811,4.5814,4.5827,4.5836,4.5739,4.5739,4.5739,0,0,4.5927,4.5908,4.5911,4.5897,4.5884,4.5887,4.5843,4.5848,4.585,4.5801,4.581,4.5795,4.5776,4.5795,4.5801,4.5783,4.584,4.5816,4.5821,4.5821,4.5832,4.5841,4.585,4.5742,4.5741,4.5741,0,0,4.5987,4.5972,4.5987,4.5976,4.5957,4.5935,4.5939,4.5912,4.59,4.5909,4.5873,4.5874,4.587,4.5859,4.5853,4.591,4.5882,4.591,4.5951,4.5964,4.5972,4.5978,4.5999,4.6007,4.5913,4.5914,4.5914,0,4.6028,4.6032,4.5998,4.6006,4.6001,4.5958,4.5974,4.5963,4.5944,4.5942,4.5922,4.5917,4.5901,4.5917,4.5931,4.5927,4.593,4.5912,4.5974,4.598,4.5985,4.6005,4.6013,4.5917,4.5917,4.5916,4.5916,0,4.6085,4.6088,4.6102,4.6085,4.6082,4.6094,4.6062,4.6063,4.604,4.6021,4.6031,4.6011,4.6002,4.6004,4.5982,4.6017,4.6006,4.5981,4.5945,4.5999,4.6016,4.6023,4.5922,4.5921,4.592,4.5919,0,0,4.6179,4.6145,4.6151,4.6143,4.6119,4.6121,4.6131,4.6123,4.6125,4.6113,4.6121,4.6119,4.6096,4.6089,4.6065,4.6077,4.6124,4.6049,4.6048,4.6064,4.6161,4.6181,4.619,4.6105,4.6107,4.6108,4.6163,0,4.6234,4.6249,4.622,4.6242,4.6245,4.6205,4.6213,4.62,4.6183,4.6183,4.6163,4.6163,4.6131,4.6127,4.6137,4.6116,4.6143,4.6112,4.6112,4.6112,4.6118,4.6199,4.6219,4.6272,4.617,4.6171,4.6172,0,4.6299,4.6292,4.6315,4.6291,4.6291,4.63,4.629,4.6291,4.6275,4.6262,4.6255,4.6228,4.6236,4.6203,4.6214,4.6193,4.6192,4.6182,4.6183,4.6182,4.6145,4.62,4.6288,4.6297,4.6182,4.6181,4.618,0,4.6367,4.6363,4.6376,4.637,4.6343,4.635,4.6339,4.6322,4.6319,4.6311,4.6309,4.6303,4.6299,4.6294,4.6266,4.6244,4.6281,4.6245,4.627,4.6271,4.6279,4.6279,4.6369,4.6279,4.6278,4.6278,4.6278,0,4.6431,4.6446,4.6406,4.6414,4.643,4.6397,4.6414,4.6399,4.6384,4.6389,4.6354,4.6359,4.6321,4.6322,4.63,4.6313,4.6312,4.6301,4.6295,4.6304,4.6306,4.6303,4.6298,4.628,4.628,4.628,4.6279,0,4.6509,4.6482,4.6494,4.6467,4.6461,4.6474,4.6452,4.6458,4.6439,4.6445,4.6445,4.6415,4.6414,4.6386,4.6379,4.6365,4.6387,4.6374,4.6392,4.6388,4.6415,4.6413,4.6506,4.6517,4.642,4.6421,4.6422,0,4.6551,4.6562,4.6537,4.6538,4.6529,4.6531,4.6528,4.6496,4.6495,4.6479,4.6488,4.6485,4.648,4.6482,4.6459,4.6454,4.6441,4.6474,4.644,4.6449,4.6442,4.6442,4.6443,4.6481,4.6482,4.6483,4.6484,0,4.663,4.6616,4.6614,4.6608,4.6606,4.66,4.6591,4.6593,4.6558,4.6559,4.6558,4.6555,4.6549,4.6547,4.6538,4.6527,4.65,4.6495,4.6501,4.651,4.6521,4.6516,4.6412,4.6493,4.6492,4.6492,4.6491,4.6491,4.6691,4.6699,4.6683,4.6683,4.6673,4.6666,4.6671,4.6653,4.6652,4.6645,4.6626,4.6629,4.6614,4.66,4.6591,4.6593,4.6576,4.6584,4.6586,4.6589,4.6594,4.6521,4.6591,4.6591,4.659,4.659,4.659,0,4.6768,4.6756,4.6756,4.6745,4.6744,4.672,4.6709,4.671,4.6713,4.6702,4.6699,4.6699,4.6697,4.6675,4.667,4.6676,4.6664,4.6676,4.6675,4.6673,4.6609,4.6605,4.6686,4.6686,4.6686,4.6686,4.6686,4.6686,4.6808,4.6821,4.6806,4.6814,4.6802,4.6805,4.6801,4.6794,4.6785,4.6787,4.6785,4.6771,4.6756,4.675,4.6747,4.6741,4.6741,4.6757,4.6747,4.6687,4.6678,4.6669,4.6664,4.6757,4.6757,4.6811,4.6811,4.6812]}]]